Location: Biltmore Gardens
(41.6070°N, 83.4666°W)
Time: 14:17:47
(UTC+00:00)

Gbstr 26 Del rocket - Pass Details

Date: 14 July 2020
Orbit: 492 x 1264 km, 51.8° (Epoch: 13 August)

Event Time Altitude Azimuth Distance (km) Brightness Sun altitude
Rises 03:08:21 0° 247° (WSW) 2,629 6.5 -17.7°
Reaches altitude 10° 03:10:37 10° 253° (WSW) 1,704 5.5 -18.0°
Maximum altitude 03:14:17 51° 330° (NNW) 626 3.5 -18.4°
Drops below altitude 10° 03:17:59 10° 48° (NE) 1,718 5.4 -18.8°
Sets 03:20:16 0° 53° (NE) 2,653 6.3 -19.0°
